SCP
0 0 0 0 0 0 0 0 0 0 0 0 0 0 0 0 0 0 0 0 0 0 0 0 0 0 0 0 0 0 0 0 0 0 0 0 0 0 0 0 0 0 0 0
0 0 0 0 0 0 0 0 0 0 0 0 0 0 0 0 0 0 0 0 0 0 0 0 0 0 0 0 0 0 0 0 0 0 0 0 0 0 0 0 0 0 0 0
0 0 0 0 0 0 0 0 0 0 0 0 0 0 0 0 0 0 0 0 0 0 0 0 0 0 0 0 0 0 0 0 0 0 0 0 0 0 0 0 0 0 0 0
0 0 0 0 0 0 0 0 0 0 0 0 0 0 0 0 0 0 0 0 0 0 0 0 0 0 0 0 0 0 0 0 0 0 0 0 0 0 0 0 0 0 0 0
0 0 0 0 0 0 0 0 0 0 0 0 0 0 0 0 0 0 0 0 0 0 0 0 0 0 0 0 0 0 0 0 0 0 0 0 0 0 0 0 0 0 0 0
0 0 0 0 0 0 0 0 0 0 0 0 0 0 0 0 0 0 0 0 0 0 0 0 0 0 0 0 0 0 0 0 0 0 0 0 0 0 0 0 0 0 0 0
0 0 0 0 0 0 0 0 0 0 0 0 0 0 0 0 0 0 0 0 0 0 0 0 0 0 0 0 0 0 0 0 0 0 0 0 0 0 0 0 0 0 0 0
0 0 0 0 0 0 0 0 0 0 0 0 0 0 0 0 0 0 0 0 0 0 0 0 0 0 0 0 0 0 0 0 0 0 0 0 0 0 0 0 0 0 0 0
0 0 0 0 0 0 0 0 0 0 0 0 0 0 0 0 0 0 0 0 0 0 0 0 0 0 0 0 0 0 0 0 0 0 0 0 0 0 0 0 0 0 0 0
0 0 0 0 0 0 0 0 0 0 0 0 0 0 0 0 0 0 0 0 0 0 0 0 0 0 0 0 0 0 0 0 0 0 0 0 0 0 0 0 0 0 0 0
0 0 0 0 0 0 0 0 0 0 0 0 0 0 0 0 0 0 0 0 0 0 0 0 0 0 0 0 0 0 0 0 0 0 0 0 0 0 0 0 0 0 0 0
0 0 0 0 0 0 0 0 0 0 0 0 0 0 0 0 0 0 0 0 0 0 0 0 0 0 0 0 0 0 0 0 0 0 0 0 0 0 0 0 0 0 0 0
0 0 0 0 0 0 0 0 0 0 0 0 0 0 0 0 0 0 0 0 0 0 0 0 0 0 0 0 0 0 0 0 0 0 0 0 0 0 0 0 0 0 0 0
0 0 0 0 0 0 0 0 0 0 0 0 0 0 0 0 0 0 0 0 0 0 0 0 0 0 0 0 0 0 0 0 0 0 0 0 0 0 0 0 0 0 0 0
0 0 0 0 0 0 0 0 0 0 0 0 0 0 0 0 0 0 0 0 0 0 0 0 0 0 0 0 0 0 0 0 0 0 0 0 0 0 0 0 0 0 0 0
0 0 0 0 0 0 0 0 0 0 0 0 0 0 0 0 0 0 0 0 0 0 0 0 0 0 0 0 0 0 0 0 0 0 0 0 0 0 0 0 0 0 0 0
0 0 0 0 0 0 0 0 0 0 0 0 0 0 0 0 0 0 0 0 0 0 0 0 0 0 0 0 0 0 0 0 0 0 0 0 0 0 0 0 0 0 0 0
0 0 0 0 0 0 0 0 0 0 0 0 0 0 0 0 0 0 0 0 0 0 0 0 0 0 0 0 0 0 0 0 0 0 0 0 0 0 0 0 0 0 0 0
0 0 0 0 0 0 0 0 0 0 0 0 0 0 0 0 0 0 0 0 0 0 0 0 0 0 0 0 0 0 0 0 0 0 0 0 0 0 0 0 0 0 0 0
0 0 0 0 0 0 0 0 0 0 0 0 0 0 0 0 0 0 0 0 0 0 0 0 0 0 0 0 0 0 0 0 0 0 0 0 0 0 0 0 0 0 0 0
0 0 0 0 0 0 0 0 0 0 0 0 0 0 0 0 0 0 0 0 0 0 0 0 0 0 0 0 0 0 0 0 0 0 0 0 0 0 0 0 0 0 0 0
0 0 0 0 0 0 0 0 0 0 0 0 0 0 0 0 0 0 0 0 0 0 0 0 0 0 0 0 0 0 0 0 0 0 0 0 0 0 0 0 0 0 0 0
0 0 0 0 0 0 0 0 0 0 0 0 0 0 0 0 0 0 0 0 0 0 0 0 0 0 0 0 0 0 0 0 0 0 0 0 0 0 0 0 0 0 0 0
0 0 0 0 0 0 0 0 0 0 0 0 0 0 0 0 0 0 0 0 0 0 0 0 0 0 0 0 0 0 0 0 0 0 0 0 0 0 0 0 0 0 0 0
0 0 0 0 0 0 0 0 0 0 0 0 0 0 0 0 0 0 0 0 0 0 0 0 0 0 0 0 0 0 0 0 0 0 0 0 0 0 0 0 0 0 0 0
0 0 0 0 0 0 0 0 0 0 0 0 0 0 0 0 0 0 0 0 0 0 0 0 0 0 0 0 0 0 0 0 0 0 0 0 0 0 0 0 0 0 0 0
0 0 0 0 0 0 0 0 0 0 0 0 0 0 0 0 0 0 0 0 0 0 0 0 0 0 0 0 0 0 0 0 0 0 0 0 0 0 0 0 0 0 0 0
Wind_Speed_500mb
29 29 29 33 27 26 24 20 6 19 41 16 14 20 10 8 9 12 15 11 23 27 21 18 25 29 27 6 17 17 20 10 21 45 41 39 28 31 32 23 18 21 26 23
29 32 34 37 34 32 32 14 10 28 53 14 20 16 17 25 14 21 14 16 18 15 21 13 22 24 10 8 7 7 6 3 10 15 19 4 8 12 23 27 25 34 28 23
30 31 35 33 35 32 40 16 9 14 35 31 20 31 29 28 16 28 35 20 17 20 23 22 15 14 4 4 2 6 4 9 22 26 35 38 38 37 29 22 18 34 32 29
21 20 22 20 26 39 44 20 10 14 13 23 27 24 6 26 25 17 14 15 34 30 22 25 35 33 22 11 8 8 8 20 29 37 43 39 37 39 48 47 46 46 48 46
29 28 18 15 18 35 38 13 9 6 6 29 36 32 28 32 20 13 20 25 14 19 19 20 9 14 15 23 21 22 13 21 23 33 39 40 43 48 48 44 45 49 51 56
30 27 27 24 19 27 16 20 16 10 12 14 16 26 34 19 23 12 15 15 11 14 17 12 2 8 16 20 15 18 22 16 16 36 32 36 33 47 46 52 53 49 44 24
32 33 36 29 29 24 23 18 13 7 8 17 21 12 23 20 24 15 14 14 12 5 5 8 13 18 28 36 41 38 24 26 19 30 26 40 27 29 24 32 28 20 9 3
39 44 43 39 35 29 24 22 16 8 5 21 20 19 18 17 18 16 18 19 10 11 3 5 7 6 6 15 31 30 38 33 21 22 30 38 49 42 40 34 33 23 15 10
44 37 36 36 34 33 34 28 29 8 2 16 17 22 31 17 16 11 14 10 18 16 12 5 7 10 3 7 7 2 14 27 23 20 29 34 29 11 3 5 25 13 15 5
37 41 49 48 45 42 42 34 36 20 11 15 32 23 22 21 22 5 10 13 11 16 11 11 11 13 10 11 10 10 7 10 28 28 32 25 16 7 5 14 18 29 12 16
56 54 52 42 47 45 54 57 47 50 20 24 36 32 22 23 30 11 16 11 6 13 12 10 13 13 15 13 20 17 16 14 14 10 13 25 8 10 11 13 7 15 26 40
55 52 54 59 61 55 56 57 44 62 39 19 30 51 46 39 31 28 34 10 13 23 13 11 9 10 8 16 18 23 15 21 14 14 15 12 23 24 36 42 47 55 62 60
56 61 62 57 68 73 63 63 57 35 42 46 56 64 68 59 54 49 30 24 32 20 28 14 11 16 14 16 22 30 30 50 24 28 32 51 60 65 61 57 57 61 56 49
59 59 55 57 59 59 66 66 60 61 28 13 28 26 46 51 58 71 67 63 31 41 34 21 12 14 25 21 24 20 28 12 27 29 41 59 59 63 67 62 57 57 50 42
56 58 63 64 64 63 56 58 72 76 62 8 26 47 51 34 42 48 57 71 65 28 17 11 14 25 19 18 17 20 48 42 25 30 52 45 51 57 54 40 52 53 51 47
56 56 55 56 61 57 54 42 69 76 75 18 8 18 32 41 46 45 42 59 67 48 25 14 17 37 16 9 14 46 69 63 64 54 73 72 74 68 63 51 54 51 54 51
56 56 56 54 52 54 59 14 17 31 78 27 7 8 24 32 29 32 39 44 38 36 30 20 35 38 38 10 27 50 60 61 64 64 65 61 69 58 50 46 50 49 44 43
52 54 54 53 55 56 66 76 70 31 57 26 7 7 7 23 17 18 26 22 28 21 19 24 21 18 19 13 33 58 69 76 63 62 57 57 58 53 60 54 46 44 41 38
42 44 45 49 58 58 54 62 64 67 50 9 11 13 12 22 16 17 17 19 10 18 14 22 21 18 17 26 47 56 62 52 56 53 52 42 43 43 47 43 42 40 37 35
36 35 29 20 46 55 35 28 33 52 39 27 10 39 16 30 26 21 16 15 9 9 14 16 12 23 60 68 58 49 52 47 44 35 32 34 36 34 35 35 33 32 32 33
30 22 28 23 23 44 25 18 21 19 13 22 27 42 14 25 10 11 23 7 8 8 9 11 9 18 31 57 54 63 55 46 39 34 35 33 31 27 29 29 30 31 33 34
32 25 20 32 27 17 12 11 11 11 12 18 15 25 40 21 16 8 15 9 9 12 6 6 7 13 24 29 37 41 39 36 32 29 29 28 27 26 26 27 29 32 34 34
47 26 19 16 16 16 14 23 12 12 14 20 20 10 26 16 18 9 11 17 13 11 8 8 10 10 22 29 30 28 26 25 24 22 21 21 21 22 24 26 30 35 40 40
22 18 19 15 12 13 14 17 9 12 23 40 38 18 10 13 13 7 10 6 8 11 11 16 16 26 30 26 23 22 19 17 14 15 16 18 20 24 27 32 36 40 42 41
16 15 13 13 5 5 8 10 4 19 34 49 18 9 14 8 8 10 8 11 10 12 12 13 5 18 22 22 18 16 14 14 14 14 16 20 25 30 30 32 37 40 43 43
18 18 3 8 7 8 9 9 9 23 23 28 12 10 9 11 8 14 14 12 15 11 5 6 15 22 23 21 19 17 15 14 14 16 20 24 27 31 34 32 34 36 38 39
7 1 4 8 2 10 5 18 17 27 24 7 7 15 14 10 8 11 10 11 11 5 10 15 19 22 23 22 19 15 13 12 14 17 20 22 25 29 31 32 28 29 29 29
Wind_Direction_500mb
224 233 235 242 232 222 204 189 201 189 172 171 206 229 216 233 199 214 247 282 272 269 266 250 238 247 249 148 326 277 282 285 264 276 286 286 295 269 275 256 251 248 263 259
242 240 238 234 228 219 199 183 183 179 175 212 220 233 230 232 203 213 202 226 228 240 241 245 250 260 275 331 316 290 58 223 281 283 279 89 212 279 279 264 264 261 273 284
245 242 243 236 233 212 192 162 175 176 208 232 245 229 232 223 216 240 240 244 251 236 238 241 254 247 226 89 263 88 67 243 247 258 276 303 297 296 292 279 272 280 264 274
206 219 215 209 199 189 181 176 208 187 195 220 222 239 246 232 216 221 223 240 238 240 250 247 250 256 255 257 223 241 245 261 263 269 274 282 287 281 275 270 266 261 277 287
212 211 211 211 206 188 190 182 178 186 216 213 211 217 226 222 202 186 217 234 213 188 236 229 265 313 281 268 277 261 266 270 290 281 277 276 276 271 267 271 272 270 272 273
217 215 219 221 226 190 195 206 188 158 167 195 198 217 226 228 233 211 246 258 232 236 259 302 287 248 266 267 270 271 265 268 264 268 281 287 270 257 263 263 263 269 275 307
225 221 221 222 227 219 208 199 170 181 218 200 208 214 224 208 209 216 188 186 186 138 132 319 291 269 262 257 255 241 254 258 257 270 282 259 263 275 289 285 285 296 308 64
226 222 221 217 221 219 225 214 187 182 247 217 210 210 200 188 190 214 210 202 201 159 152 243 269 222 264 249 239 245 234 250 264 255 252 274 291 287 285 293 291 310 209 182
215 208 214 212 213 213 224 228 214 199 211 229 215 203 204 199 202 177 206 187 206 178 195 162 215 245 358 259 279 168 244 236 237 247 259 266 284 342 349 309 276 129 121 176
245 230 220 218 218 215 220 224 218 198 224 252 187 193 197 192 188 185 144 169 157 179 184 205 226 243 203 250 220 230 214 227 231 243 255 267 271 92 131 247 295 154 184 293
240 240 244 235 226 224 220 226 227 213 216 247 213 210 171 174 192 185 148 135 172 181 209 218 226 238 224 242 245 250 233 246 228 231 259 270 94 123 224 320 255 235 274 299
243 236 230 240 241 239 243 242 241 220 219 233 220 237 230 226 230 216 176 202 150 194 205 210 216 205 227 213 241 229 240 239 256 233 245 247 200 232 264 276 276 281 294 297
240 240 234 235 238 233 224 237 236 210 225 250 249 240 241 234 228 223 212 229 223 215 215 204 224 233 221 222 225 249 252 251 247 254 249 257 267 273 273 277 278 281 283 286
240 240 239 236 240 236 224 228 230 234 239 233 246 242 235 248 240 230 225 240 243 232 232 225 220 231 219 234 238 242 246 260 240 252 257 265 265 266 269 272 277 280 283 279
243 243 244 238 239 238 229 234 233 236 214 259 238 246 241 245 241 238 239 232 235 224 206 213 223 237 246 224 243 241 242 241 246 252 260 263 267 275 280 282 283 280 274 265
250 245 244 247 235 232 231 233 234 239 228 241 218 241 237 238 239 230 222 229 229 226 221 220 231 238 224 220 231 241 249 252 248 256 262 264 268 277 281 281 281 270 265 266
247 245 244 243 241 232 221 205 208 225 223 222 219 206 228 238 214 213 225 223 216 219 230 229 237 236 222 232 243 247 250 256 258 257 262 266 265 271 279 275 270 264 258 259
245 239 242 245 244 239 234 239 243 240 202 211 215 179 207 204 174 190 197 202 218 223 235 243 241 247 226 242 243 250 253 256 262 264 263 263 270 268 269 268 259 256 253 254
242 241 240 239 232 233 231 235 236 236 215 222 192 194 214 183 181 180 171 196 215 217 226 232 228 233 227 231 241 244 253 260 267 269 269 266 261 263 263 259 253 250 256 259
236 232 225 223 220 230 224 212 203 202 207 216 208 197 201 171 175 185 174 189 225 221 223 219 221 237 239 248 254 262 263 263 263 264 268 266 265 261 259 256 252 254 258 262
237 222 221 219 212 189 192 215 205 179 194 196 210 199 171 193 169 177 202 187 202 231 216 207 227 245 241 251 251 252 254 257 259 260 262 268 267 259 251 253 257 262 264 270
226 238 230 187 186 201 215 194 189 210 213 163 168 180 188 169 171 176 170 205 188 235 121 241 244 248 236 230 227 232 241 251 256 256 257 257 256 256 256 258 264 269 274 279
233 233 210 200 179 207 200 194 213 195 149 166 153 149 163 150 188 183 180 205 207 117 200 222 236 253 237 226 224 224 231 239 245 247 250 253 257 263 267 270 274 277 279 282
208 204 208 208 211 209 202 218 210 186 184 168 172 143 161 163 180 179 208 146 137 201 216 238 250 233 221 211 212 218 222 230 240 247 252 258 265 269 273 277 278 280 284 288
226 199 223 211 178 104 175 214 212 190 184 151 140 130 157 159 188 192 136 174 211 216 228 236 167 206 198 198 197 203 210 216 222 237 255 269 277 282 285 286 289 291 291 292
219 218 273 10 211 167 170 196 223 201 171 161 135 141 187 191 185 189 191 187 210 224 198 171 177 173 179 184 185 189 200 219 243 266 278 285 291 295 298 300 300 297 296 295
184 117 200 166 223 332 343 162 182 179 176 181 159 189 185 121 192 200 189 217 243 98 162 172 182 177 173 172 180 198 224 250 274 287 296 301 306 309 310 311 310 305 303 302
Wind_Speed_850mb
29 29 29 33 27 26 24 20 6 19 41 16 14 20 10 8 9 12 15 11 23 27 21 18 25 29 27 6 17 17 20 10 21 45 41 39 28 31 32 23 18 21 26 23
29 32 34 37 34 32 32 14 10 28 53 14 20 16 17 25 14 21 14 16 18 15 21 13 22 24 10 8 7 7 6 3 10 15 19 4 8 12 23 27 25 34 28 23
30 31 35 33 35 32 40 16 9 14 35 31 20 31 29 28 16 28 35 20 17 20 23 22 15 14 4 4 2 6 4 9 22 26 35 38 38 37 29 22 18 34 32 29
21 20 22 20 26 39 44 20 10 14 13 23 27 24 6 26 25 17 14 15 34 30 22 25 35 33 22 11 8 8 8 20 29 37 43 39 37 39 48 47 46 46 48 46
29 28 18 15 18 35 38 13 9 6 6 29 36 32 28 32 20 13 20 25 14 19 19 20 9 14 15 23 21 22 13 21 23 33 39 40 43 48 48 44 45 49 51 56
30 27 27 24 19 27 16 20 16 10 12 14 16 26 34 19 23 12 15 15 11 14 17 12 2 8 16 20 15 18 22 16 16 36 32 36 33 47 46 52 53 49 44 24
32 33 36 29 29 24 23 18 13 7 8 17 21 12 23 20 24 15 14 14 12 5 5 8 13 18 28 36 41 38 24 26 19 30 26 40 27 29 24 32 28 20 9 3
39 44 43 39 35 29 24 22 16 8 5 21 20 19 18 17 18 16 18 19 10 11 3 5 7 6 6 15 31 30 38 33 21 22 30 38 49 42 40 34 33 23 15 10
44 37 36 36 34 33 34 28 29 8 2 16 17 22 31 17 16 11 14 10 18 16 12 5 7 10 3 7 7 2 14 27 23 20 29 34 29 11 3 5 25 13 15 5
37 41 49 48 45 42 42 34 36 20 11 15 32 23 22 21 22 5 10 13 11 16 11 11 11 13 10 11 10 10 7 10 28 28 32 25 16 7 5 14 18 29 12 16
56 54 52 42 47 45 54 57 47 50 20 24 36 32 22 23 30 11 16 11 6 13 12 10 13 13 15 13 20 17 16 14 14 10 13 25 8 10 11 13 7 15 26 40
55 52 54 59 61 55 56 57 44 62 39 19 30 51 46 39 31 28 34 10 13 23 13 11 9 10 8 16 18 23 15 21 14 14 15 12 23 24 36 42 47 55 62 60
56 61 62 57 68 73 63 63 57 35 42 46 56 64 68 59 54 49 30 24 32 20 28 14 11 16 14 16 22 30 30 50 24 28 32 51 60 65 61 57 57 61 56 49
59 59 55 57 59 59 66 66 60 61 28 13 28 26 46 51 58 71 67 63 31 41 34 21 12 14 25 21 24 20 28 12 27 29 41 59 59 63 67 62 57 57 50 42
56 58 63 64 64 63 56 58 72 76 62 8 26 47 51 34 42 48 57 71 65 28 17 11 14 25 19 18 17 20 48 42 25 30 52 45 51 57 54 40 52 53 51 47
56 56 55 56 61 57 54 42 69 76 75 18 8 18 32 41 46 45 42 59 67 48 25 14 17 37 16 9 14 46 69 63 64 54 73 72 74 68 63 51 54 51 54 51
56 56 56 54 52 54 59 14 17 31 78 27 7 8 24 32 29 32 39 44 38 36 30 20 35 38 38 10 27 50 60 61 64 64 65 61 69 58 50 46 50 49 44 43
52 54 54 53 55 56 66 76 70 31 57 26 7 7 7 23 17 18 26 22 28 21 19 24 21 18 19 13 33 58 69 76 63 62 57 57 58 53 60 54 46 44 41 38
42 44 45 49 58 58 54 62 64 67 50 9 11 13 12 22 16 17 17 19 10 18 14 22 21 18 17 26 47 56 62 52 56 53 52 42 43 43 47 43 42 40 37 35
36 35 29 20 46 55 35 28 33 52 39 27 10 39 16 30 26 21 16 15 9 9 14 16 12 23 60 68 58 49 52 47 44 35 32 34 36 34 35 35 33 32 32 33
30 22 28 23 23 44 25 18 21 19 13 22 27 42 14 25 10 11 23 7 8 8 9 11 9 18 31 57 54 63 55 46 39 34 35 33 31 27 29 29 30 31 33 34
32 25 20 32 27 17 12 11 11 11 12 18 15 25 40 21 16 8 15 9 9 12 6 6 7 13 24 29 37 41 39 36 32 29 29 28 27 26 26 27 29 32 34 34
47 26 19 16 16 16 14 23 12 12 14 20 20 10 26 16 18 9 11 17 13 11 8 8 10 10 22 29 30 28 26 25 24 22 21 21 21 22 24 26 30 35 40 40
22 18 19 15 12 13 14 17 9 12 23 40 38 18 10 13 13 7 10 6 8 11 11 16 16 26 30 26 23 22 19 17 14 15 16 18 20 24 27 32 36 40 42 41
16 15 13 13 5 5 8 10 4 19 34 49 18 9 14 8 8 10 8 11 10 12 12 13 5 18 22 22 18 16 14 14 14 14 16 20 25 30 30 32 37 40 43 43
18 18 3 8 7 8 9 9 9 23 23 28 12 10 9 11 8 14 14 12 15 11 5 6 15 22 23 21 19 17 15 14 14 16 20 24 27 31 34 32 34 36 38 39
7 1 4 8 2 10 5 18 17 27 24 7 7 15 14 10 8 11 10 11 11 5 10 15 19 22 23 22 19 15 13 12 14 17 20 22 25 29 31 32 28 29 29 29
Wind_Direction_850mb
224 233 235 242 232 222 204 189 201 189 172 171 206 229 216 233 199 214 247 282 272 269 266 250 238 247 249 148 326 277 282 285 264 276 286 286 295 269 275 256 251 248 263 259
242 240 238 234 228 219 199 183 183 179 175 212 220 233 230 232 203 213 202 226 228 240 241 245 250 260 275 331 316 290 58 223 281 283 279 89 212 279 279 264 264 261 273 284
245 242 243 236 233 212 192 162 175 176 208 232 245 229 232 223 216 240 240 244 251 236 238 241 254 247 226 89 263 88 67 243 247 258 276 303 297 296 292 279 272 280 264 274
206 219 215 209 199 189 181 176 208 187 195 220 222 239 246 232 216 221 223 240 238 240 250 247 250 256 255 257 223 241 245 261 263 269 274 282 287 281 275 270 266 261 277 287
212 211 211 211 206 188 190 182 178 186 216 213 211 217 226 222 202 186 217 234 213 188 236 229 265 313 281 268 277 261 266 270 290 281 277 276 276 271 267 271 272 270 272 273
217 215 219 221 226 190 195 206 188 158 167 195 198 217 226 228 233 211 246 258 232 236 259 302 287 248 266 267 270 271 265 268 264 268 281 287 270 257 263 263 263 269 275 307
225 221 221 222 227 219 208 199 170 181 218 200 208 214 224 208 209 216 188 186 186 138 132 319 291 269 262 257 255 241 254 258 257 270 282 259 263 275 289 285 285 296 308 64
226 222 221 217 221 219 225 214 187 182 247 217 210 210 200 188 190 214 210 202 201 159 152 243 269 222 264 249 239 245 234 250 264 255 252 274 291 287 285 293 291 310 209 182
215 208 214 212 213 213 224 228 214 199 211 229 215 203 204 199 202 177 206 187 206 178 195 162 215 245 358 259 279 168 244 236 237 247 259 266 284 342 349 309 276 129 121 176
245 230 220 218 218 215 220 224 218 198 224 252 187 193 197 192 188 185 144 169 157 179 184 205 226 243 203 250 220 230 214 227 231 243 255 267 271 92 131 247 295 154 184 293
240 240 244 235 226 224 220 226 227 213 216 247 213 210 171 174 192 185 148 135 172 181 209 218 226 238 224 242 245 250 233 246 228 231 259 270 94 123 224 320 255 235 274 299
243 236 230 240 241 239 243 242 241 220 219 233 220 237 230 226 230 216 176 202 150 194 205 210 216 205 227 213 241 229 240 239 256 233 245 247 200 232 264 276 276 281 294 297
240 240 234 235 238 233 224 237 236 210 225 250 249 240 241 234 228 223 212 229 223 215 215 204 224 233 221 222 225 249 252 251 247 254 249 257 267 273 273 277 278 281 283 286
240 240 239 236 240 236 224 228 230 234 239 233 246 242 235 248 240 230 225 240 243 232 232 225 220 231 219 234 238 242 246 260 240 252 257 265 265 266 269 272 277 280 283 279
243 243 244 238 239 238 229 234 233 236 214 259 238 246 241 245 241 238 239 232 235 224 206 213 223 237 246 224 243 241 242 241 246 252 260 263 267 275 280 282 283 280 274 265
250 245 244 247 235 232 231 233 234 239 228 241 218 241 237 238 239 230 222 229 229 226 221 220 231 238 224 220 231 241 249 252 248 256 262 264 268 277 281 281 281 270 265 266
247 245 244 243 241 232 221 205 208 225 223 222 219 206 228 238 214 213 225 223 216 219 230 229 237 236 222 232 243 247 250 256 258 257 262 266 265 271 279 275 270 264 258 259
245 239 242 245 244 239 234 239 243 240 202 211 215 179 207 204 174 190 197 202 218 223 235 243 241 247 226 242 243 250 253 256 262 264 263 263 270 268 269 268 259 256 253 254
242 241 240 239 232 233 231 235 236 236 215 222 192 194 214 183 181 180 171 196 215 217 226 232 228 233 227 231 241 244 253 260 267 269 269 266 261 263 263 259 253 250 256 259
236 232 225 223 220 230 224 212 203 202 207 216 208 197 201 171 175 185 174 189 225 221 223 219 221 237 239 248 254 262 263 263 263 264 268 266 265 261 259 256 252 254 258 262
237 222 221 219 212 189 192 215 205 179 194 196 210 199 171 193 169 177 202 187 202 231 216 207 227 245 241 251 251 252 254 257 259 260 262 268 267 259 251 253 257 262 264 270
226 238 230 187 186 201 215 194 189 210 213 163 168 180 188 169 171 176 170 205 188 235 121 241 244 248 236 230 227 232 241 251 256 256 257 257 256 256 256 258 264 269 274 279
233 233 210 200 179 207 200 194 213 195 149 166 153 149 163 150 188 183 180 205 207 117 200 222 236 253 237 226 224 224 231 239 245 247 250 253 257 263 267 270 274 277 279 282
208 204 208 208 211 209 202 218 210 186 184 168 172 143 161 163 180 179 208 146 137 201 216 238 250 233 221 211 212 218 222 230 240 247 252 258 265 269 273 277 278 280 284 288
226 199 223 211 178 104 175 214 212 190 184 151 140 130 157 159 188 192 136 174 211 216 228 236 167 206 198 198 197 203 210 216 222 237 255 269 277 282 285 286 289 291 291 292
219 218 273 10 211 167 170 196 223 201 171 161 135 141 187 191 185 189 191 187 210 224 198 171 177 173 179 184 185 189 200 219 243 266 278 285 291 295 298 300 300 297 296 295
184 117 200 166 223 332 343 162 182 179 176 181 159 189 185 121 192 200 189 217 243 98 162 172 182 177 173 172 180 198 224 250 274 287 296 301 306 309 310 311 310 305 303 302